WZZ2447 LZIB-LZKZ

Flight info

Callsign WZZ2447
Flight time 0h 33m
Altitude 19000
Route NIT N190 TAKOS
Aircraft A321/M-SDE1E2E3FGIJ1J4RWXY/LB1

Departure

Time 2026-05-08 09:37
Airport M. R. Štefánik Airport (LZIB)

Arrival

Time 2026-05-08 10:10
Airport Košice International Airport (LZKZ)
Time Latitude Longitude Altitude Speed Heading
2026-05-08 09:08 48.16914 17.20091 432 ft 0 kts 314°
2026-05-08 09:26 48.16906 17.20104 421 ft 4 kts 314°
2026-05-08 09:26 48.16891 17.20128 430 ft 4 kts 320°
2026-05-08 09:27 48.16870 17.20138 425 ft 4 kts 24°
2026-05-08 09:27 48.16850 17.20117 418 ft 4 kts 44°
2026-05-08 09:27 48.16831 17.20089 420 ft 4 kts 44°
2026-05-08 09:27 48.16821 17.20075 421 ft 0 kts 44°
2026-05-08 09:30 48.16822 17.20076 421 ft 1 kts 44°
2026-05-08 09:30 48.16833 17.20091 420 ft 3 kts 41°
2026-05-08 09:30 48.16854 17.20121 418 ft 5 kts 43°
2026-05-08 09:30 48.16886 17.20165 423 ft 7 kts 43°
2026-05-08 09:31 48.16927 17.20225 429 ft 9 kts 44°
2026-05-08 09:31 48.16977 17.20299 428 ft 11 kts 44°
2026-05-08 09:31 48.17038 17.20387 431 ft 13 kts 44°
2026-05-08 09:31 48.17107 17.20487 425 ft 15 kts 44°
2026-05-08 09:32 48.17163 17.20618 425 ft 16 kts 91°
2026-05-08 09:32 48.17098 17.20755 417 ft 17 kts 133°
2026-05-08 09:32 48.17013 17.20890 425 ft 18 kts 133°
2026-05-08 09:32 48.16919 17.21031 423 ft 20 kts 134°
2026-05-08 09:33 48.16824 17.21192 419 ft 21 kts 132°
2026-05-08 09:33 48.16720 17.21350 424 ft 22 kts 133°
2026-05-08 09:33 48.16612 17.21519 421 ft 23 kts 134°
2026-05-08 09:33 48.16498 17.21698 425 ft 24 kts 134°
2026-05-08 09:34 48.16377 17.21885 424 ft 25 kts 134°
2026-05-08 09:34 48.16252 17.22078 421 ft 26 kts 134°
2026-05-08 09:34 48.16123 17.22278 426 ft 27 kts 134°
2026-05-08 09:34 48.15989 17.22486 423 ft 28 kts 134°
2026-05-08 09:35 48.15864 17.22679 428 ft 26 kts 134°
2026-05-08 09:35 48.15737 17.22877 422 ft 26 kts 131°
2026-05-08 09:35 48.15688 17.23036 419 ft 7 kts 103°
2026-05-08 09:35 48.15687 17.23040 420 ft 0 kts 103°
2026-05-08 09:36 48.15680 17.23087 429 ft 9 kts 100°
2026-05-08 09:36 48.15716 17.23198 417 ft 15 kts 40°
2026-05-08 09:36 48.15775 17.23181 424 ft 0 kts 314°
2026-05-08 09:36 48.15846 17.23073 422 ft 49 kts 314°
2026-05-08 09:37 48.16262 17.22428 424 ft 120 kts 314°
2026-05-08 09:37 48.16971 17.21325 591 ft 159 kts 313°
2026-05-08 09:37 48.17719 17.20204 1469 ft 153 kts 322°
2026-05-08 09:37 48.18729 17.19614 2009 ft 165 kts 349°
2026-05-08 09:38 48.19957 17.19630 2343 ft 190 kts
2026-05-08 09:38 48.21216 17.20500 2801 ft 209 kts 36°
2026-05-08 09:38 48.22156 17.22216 3515 ft 217 kts 54°
2026-05-08 09:38 48.22976 17.24124 4343 ft 218 kts 54°
2026-05-08 09:39 48.23807 17.26061 5087 ft 228 kts 58°
2026-05-08 09:39 48.24312 17.28453 5469 ft 255 kts 77°
2026-05-08 09:39 48.24667 17.31182 5923 ft 275 kts 77°
2026-05-08 09:39 48.25025 17.34046 6635 ft 283 kts 78°
2026-05-08 09:40 48.25387 17.36973 7410 ft 287 kts 78°
2026-05-08 09:40 48.25753 17.39932 8211 ft 290 kts 78°
2026-05-08 09:40 48.26126 17.42933 9006 ft 294 kts 78°
2026-05-08 09:40 48.26507 17.45971 9782 ft 299 kts 78°
2026-05-08 09:41 48.26897 17.49087 10327 ft 312 kts 78°
2026-05-08 09:41 48.27312 17.52400 10550 ft 335 kts 78°
2026-05-08 09:41 48.27756 17.55930 10939 ft 350 kts 78°
2026-05-08 09:41 48.28208 17.59548 11581 ft 355 kts 78°
2026-05-08 09:42 48.28664 17.63218 12273 ft 360 kts 79°
2026-05-08 09:42 48.29125 17.66931 12968 ft 364 kts 79°
2026-05-08 09:42 48.29591 17.70690 13668 ft 368 kts 79°
2026-05-08 09:42 48.30057 17.74495 14306 ft 372 kts 79°
2026-05-08 09:43 48.30527 17.78336 14951 ft 376 kts 79°
2026-05-08 09:43 48.31002 17.82221 15591 ft 380 kts 79°
2026-05-08 09:43 48.31483 17.86135 16245 ft 383 kts 79°
2026-05-08 09:43 48.31968 17.90094 16889 ft 387 kts 79°
2026-05-08 09:44 48.32460 17.94091 17517 ft 391 kts 79°
2026-05-08 09:44 48.32951 17.98128 18160 ft 395 kts 79°
2026-05-08 09:44 48.33444 18.02208 18713 ft 399 kts 79°
2026-05-08 09:44 48.33940 18.06329 18981 ft 402 kts 79°
2026-05-08 09:45 48.34435 18.10459 19049 ft 400 kts 79°
2026-05-08 09:45 48.34927 18.14565 19059 ft 398 kts 79°
2026-05-08 09:45 48.35418 18.18657 19060 ft 398 kts 79°
2026-05-08 09:45 48.35906 18.22754 19060 ft 398 kts 79°
2026-05-08 09:46 48.36390 18.26853 19059 ft 398 kts 79°
2026-05-08 09:46 48.36871 18.30947 19060 ft 398 kts 79°
2026-05-08 09:46 48.37355 18.35046 19060 ft 398 kts 79°
2026-05-08 09:46 48.37839 18.39141 19058 ft 398 kts 79°
2026-05-08 09:47 48.38323 18.43247 19059 ft 399 kts 79°
2026-05-08 09:47 48.38807 18.47358 19061 ft 399 kts 79°
2026-05-08 09:47 48.39290 18.51474 19061 ft 399 kts 79°
2026-05-08 09:47 48.39768 18.55587 19062 ft 399 kts 79°
2026-05-08 09:48 48.40242 18.59700 19058 ft 400 kts 79°
2026-05-08 09:48 48.40713 18.63826 19059 ft 400 kts 79°
2026-05-08 09:48 48.41181 18.67941 19060 ft 399 kts 80°
2026-05-08 09:48 48.41649 18.72064 19060 ft 399 kts 79°
2026-05-08 09:49 48.42119 18.76184 19064 ft 399 kts 80°
2026-05-08 09:49 48.42589 18.80301 19070 ft 399 kts 79°
2026-05-08 09:49 48.43058 18.84422 19065 ft 399 kts 79°
2026-05-08 09:49 48.43526 18.88546 19054 ft 399 kts 79°
2026-05-08 09:50 48.43994 18.92668 19056 ft 399 kts 79°
2026-05-08 09:50 48.44459 18.96787 19055 ft 399 kts 79°
2026-05-08 09:50 48.44923 19.00917 19055 ft 400 kts 79°
2026-05-08 09:50 48.45384 19.05033 19056 ft 400 kts 80°
2026-05-08 09:51 48.45844 19.09166 19054 ft 399 kts 80°
2026-05-08 09:51 48.46300 19.13293 19055 ft 400 kts 80°
2026-05-08 09:51 48.46755 19.17427 19056 ft 400 kts 80°
2026-05-08 09:51 48.47209 19.21557 19056 ft 400 kts 80°
2026-05-08 09:52 48.47661 19.25691 19056 ft 400 kts 80°
2026-05-08 09:52 48.48111 19.29822 19054 ft 400 kts 80°
2026-05-08 09:52 48.48561 19.33950 19055 ft 400 kts 80°
2026-05-08 09:52 48.49011 19.38083 19053 ft 400 kts 80°
2026-05-08 09:53 48.49461 19.42222 19055 ft 400 kts 80°
2026-05-08 09:53 48.49908 19.46357 19056 ft 399 kts 80°
2026-05-08 09:53 48.50350 19.50488 19058 ft 400 kts 80°
2026-05-08 09:53 48.50790 19.54623 19059 ft 400 kts 80°
2026-05-08 09:54 48.51232 19.58762 19072 ft 399 kts 80°
2026-05-08 09:54 48.51674 19.62893 19071 ft 399 kts 80°
2026-05-08 09:54 48.52107 19.66967 19035 ft 395 kts 81°
2026-05-08 09:54 48.52538 19.71066 18792 ft 385 kts 81°
2026-05-08 09:55 48.52946 19.74956 18558 ft 376 kts 80°
2026-05-08 09:55 48.53348 19.78811 18317 ft 369 kts 81°
2026-05-08 09:55 48.53746 19.82621 18047 ft 366 kts 80°
2026-05-08 09:55 48.54142 19.86405 17770 ft 364 kts 80°
2026-05-08 09:56 48.54532 19.90162 17505 ft 362 kts 80°
2026-05-08 09:56 48.54920 19.93902 17242 ft 360 kts 81°
2026-05-08 09:56 48.55305 19.97620 16980 ft 358 kts 80°
2026-05-08 09:56 48.55685 20.01321 16716 ft 356 kts 81°
2026-05-08 09:57 48.56440 20.08675 16209 ft 353 kts 81°
2026-05-08 09:57 48.56811 20.12328 15955 ft 351 kts 81°
2026-05-08 09:57 48.57178 20.15971 15701 ft 349 kts 81°
2026-05-08 09:58 48.57536 20.19559 15364 ft 344 kts 81°
2026-05-08 09:58 48.57890 20.23118 14955 ft 342 kts 81°
2026-05-08 09:58 48.58115 20.26683 14566 ft 341 kts 90°
2026-05-08 09:58 48.57895 20.30232 14171 ft 339 kts 99°
2026-05-08 09:59 48.57536 20.33734 13765 ft 337 kts 99°
2026-05-08 09:59 48.57183 20.37217 13361 ft 334 kts 99°
2026-05-08 09:59 48.56835 20.40671 12963 ft 331 kts 99°
2026-05-08 09:59 48.56491 20.44093 12574 ft 328 kts 99°
2026-05-08 10:00 48.56148 20.47482 12193 ft 325 kts 98°
2026-05-08 10:00 48.55807 20.50845 11814 ft 323 kts 99°
2026-05-08 10:00 48.55467 20.54179 11433 ft 320 kts 98°
2026-05-08 10:00 48.55129 20.57489 11056 ft 318 kts 98°
2026-05-08 10:01 48.54789 20.60777 10679 ft 316 kts 99°
2026-05-08 10:01 48.54451 20.64038 10308 ft 314 kts 99°
2026-05-08 10:01 48.54118 20.67257 10097 ft 306 kts 99°
2026-05-08 10:01 48.53795 20.70401 9804 ft 301 kts 98°
2026-05-08 10:02 48.53473 20.73524 9422 ft 299 kts 98°
2026-05-08 10:02 48.53152 20.76633 8924 ft 302 kts 98°
2026-05-08 10:02 48.52832 20.79723 8653 ft 294 kts 99°
2026-05-08 10:02 48.52516 20.82739 8024 ft 288 kts 99°
2026-05-08 10:03 48.52204 20.85698 7400 ft 284 kts 99°
2026-05-08 10:03 48.51893 20.88626 6836 ft 282 kts 98°
2026-05-08 10:03 48.51584 20.91534 6265 ft 279 kts 98°
2026-05-08 10:03 48.51275 20.94413 5663 ft 276 kts 98°
2026-05-08 10:04 48.50967 20.97292 5078 ft 282 kts 98°
2026-05-08 10:04 48.50656 21.00243 4503 ft 288 kts 98°
2026-05-08 10:04 48.50337 21.03242 4052 ft 287 kts 99°
2026-05-08 10:04 48.49966 21.06054 3915 ft 259 kts 102°
2026-05-08 10:05 48.49584 21.08545 3783 ft 236 kts 102°
2026-05-08 10:05 48.49213 21.10885 3515 ft 224 kts 102°
2026-05-08 10:05 48.49063 21.13140 3381 ft 210 kts 84°
2026-05-08 10:05 48.49373 21.15242 3110 ft 204 kts 66°
2026-05-08 10:06 48.50098 21.17059 2977 ft 204 kts 49°
2026-05-08 10:06 48.51128 21.18415 2990 ft 187 kts 32°
2026-05-08 10:06 48.52236 21.19192 3001 ft 168 kts 17°
2026-05-08 10:06 48.53343 21.19596 2982 ft 161 kts 13°
2026-05-08 10:07 48.54420 21.19972 2845 ft 158 kts 13°
2026-05-08 10:07 48.55490 21.20344 2664 ft 157 kts 13°
2026-05-08 10:07 48.56557 21.20716 2462 ft 157 kts 13°
2026-05-08 10:07 48.57604 21.21080 2273 ft 152 kts 13°
2026-05-08 10:08 48.58629 21.21437 2066 ft 150 kts 13°
2026-05-08 10:08 48.59645 21.21791 1866 ft 149 kts 13°
2026-05-08 10:08 48.60655 21.22143 1664 ft 149 kts 13°
2026-05-08 10:08 48.61660 21.22489 1449 ft 147 kts 13°
2026-05-08 10:09 48.62644 21.22857 1243 ft 145 kts 14°
2026-05-08 10:09 48.63625 21.23180 1052 ft 143 kts 12°
2026-05-08 10:09 48.64584 21.23520 857 ft 141 kts 13°
2026-05-08 10:09 48.65511 21.23843 756 ft 124 kts 12°
2026-05-08 10:10 48.66182 21.24077 755 ft 74 kts 13°
2026-05-08 10:10 48.66475 21.24178 754 ft 60 kts 13°
2026-05-08 10:10 48.66739 21.24269 756 ft 20 kts
2026-05-08 10:10 48.66807 21.24139 755 ft 17 kts 284°
2026-05-08 10:11 48.66836 21.23960 754 ft 16 kts 284°
2026-05-08 10:11 48.66862 21.23874 754 ft 6 kts 319°
2026-05-08 10:11 48.66900 21.23836 754 ft 8 kts 328°
2026-05-08 10:11 48.66950 21.23790 754 ft 9 kts 329°
2026-05-08 10:12 48.67012 21.23734 755 ft 11 kts 328°
2026-05-08 10:12 48.67087 21.23685 756 ft 13 kts 357°
2026-05-08 10:12 48.67171 21.23728 755 ft 14 kts 37°
2026-05-08 10:12 48.67197 21.23765 755 ft 3 kts 43°
2026-05-08 10:13 48.67214 21.23792 756 ft 4 kts 52°
2026-05-08 10:13 48.67216 21.23838 755 ft 5 kts 105°
2026-05-08 10:13 48.67208 21.23890 757 ft 5 kts 89°
2026-05-08 10:13 48.67233 21.23917 753 ft 5 kts 16°
2026-05-08 10:14 48.67250 21.23923 755 ft 0 kts 14°